{"data":{"norad_id":54174,"epoch":"2026-05-25T04:54:25.310304Z","epoch_age_seconds":57298,"freshness":"FRESH","line1":"1 54174U 22141T   26145.20445961  .00000288  00000+0  36216-4 0  9999","line2":"2 54174  53.2128 325.3736 0001516  92.1047 268.0119 15.08835443198184","mean_motion":15.08835443,"eccentricity":0.0001516,"inclination_deg":53.2128,"raan_deg":325.3736,"arg_perigee_deg":92.1047,"mean_anomaly_deg":268.0119,"bstar":3.6216e-5,"rev_number":19818,"period_min":95.437842919229,"perigee_km":538.70856514651,"apogee_km":540.8060707037,"semimajor_km":6917.8943179251,"source":"CELESTRAK","updated_at":"2026-05-25T13:38:17.662888Z"}}